#timestamp,LO_Frequency,Hit,StdDev 
1622095215.8,286046996.7,N
1622095235.7,286046997.4,N
1622095255.5,286046996.9,N
1622095275.3,286046997.5,N
1622095295.2,286046995.6,N
1622095315.0,286046996.8,N
1622095315.9,286046996.8,N
1622095335.8,286046995.7,N
1622095355.6,286046998.0,N
1622095375.4,286046994.9,Y
1622095395.3,286047002.7,P
1622095415.1,286047001.9,N
1622095435.8,286046999.7,N
1622095455.7,286046999.8,N
1622095475.5,286046999.8,N
1622095495.4,286047002.5,N
1622095515.2,286047002.2,N
1622095535.0,286047002.7,N
1622095535.9,286047002.7,N
1622095555.8,286046999.8,N
1622095575.6,286047001.0,N
1622095595.4,286047000.3,N
1622095615.3,286046999.3,N
1622095635.1,286047000.9,N
1622095655.9,286047000.5,N
1622095675.7,286046998.1,N
1622095695.5,286046998.0,N
1622095715.4,286046993.5,Y
1622095735.2,286046998.0,P
1622095755.0,286046998.9,N
1622095756.0,286046998.9,N
1622095775.8,286046999.3,N
1622095795.6,286046996.6,Y
1622095815.5,286047000.4,P
1622095835.3,286047002.6,P
1622095855.1,286047000.5,N
1622095875.9,286047000.0,N
1622095895.7,286047002.2,N
1622095915.6,286047001.8,N
1622095935.4,286047002.7,N
1622095955.2,286047002.5,N
1622095975.1,286047002.2,N
1622095976.0,286047002.2,N
1622095995.8,286047002.5,N
1622096015.6,286046999.8,N
1622096035.5,286046999.0,N
1622096055.3,286046999.4,N
1622096075.2,286047000.8,N
1622096095.9,286047000.8,N
1622096115.7,286046998.2,N
1622096135.6,286047002.4,N
1622096155.4,286047000.4,N
1622096175.3,286047000.7,N
1622096195.1,286047001.2,N
1622096196.0,286047001.2,N
1622096215.8,286047001.1,N
1622096235.7,286047002.1,N
1622096255.5,286047002.1,N
1622096275.3,286047002.1,N
1622096295.2,286047004.0,Y
1622096315.0,286047002.4,P
1622096315.9,286047002.4,P
1622096335.8,286046998.5,N
1622096355.6,286046998.4,N
1622096375.4,286046998.5,N
1622096395.3,286046998.3,N
1622096415.1,286046998.1,N
1622096435.8,286046999.5,N
1622096455.7,286046998.1,N
1622096475.5,286046998.5,N
1622096495.4,286047001.0,N
1622096515.2,286047001.1,N
1622096535.0,286047000.8,N
1622096535.9,286047000.8,N
1622096555.8,286046998.4,N
1622096575.6,286046998.5,N
1622096595.4,286047000.8,N
1622096615.3,286046998.8,N
1622096635.1,286046999.4,N
1622096655.9,286046998.2,N
1622096675.7,286046998.3,N
1622096695.5,286047001.1,N
1622096715.4,286047001.2,N
1622096735.2,286047000.7,N
1622096755.0,286047001.5,N
1622096755.9,286047001.5,N
1622096775.8,286047000.2,N
1622096795.6,286047000.1,N
1622096815.5,286047002.1,N
1622096835.3,286047001.7,N
1622096855.1,286047002.9,N
1622096875.9,286047003.5,N
1622096895.1,286047003.6,N
1622096915.8,286047003.3,N
1622096935.7,286047003.8,N
1622096955.5,286047002.0,N
1622096975.4,286046999.7,N
1622096995.2,286047002.7,N
1622097015.0,286047000.2,N
1622097015.9,286047000.2,N
1622097035.8,286047001.6,N
1622097055.6,286047001.8,N
1622097075.4,286047001.3,N
1622097095.3,286047001.5,N
1622097115.1,286047001.3,N
1622097135.9,286047000.6,N
1622097155.7,286047001.2,N
1622097175.5,286047000.7,N
1622097195.4,286047001.2,N
1622097215.2,286047001.0,N
1622097235.0,286047000.5,N
1622097235.9,286047000.5,N
1622097255.8,286047000.8,N
1622097275.6,286046998.6,N
1622097295.5,286046998.3,N
1622097315.3,286046999.1,N
1622097335.1,286046997.4,N
1622097355.9,286046997.7,N
1622097375.7,286046997.9,N
1622097395.5,286046999.1,N
1622097415.4,286046998.2,N
1622097435.2,286046999.6,N
1622097455.1,286046999.9,N
1622097456.0,286046999.9,N
1622097475.8,286046999.7,N
1622097495.6,286047001.0,N
1622097515.5,286046998.1,N
1622097535.3,286046998.8,N
1622097555.1,286046998.6,N
1622097575.9,286047002.0,N
1622097595.7,286047002.6,N
1622097615.6,286047000.2,N
1622097635.4,286046999.8,N
1622097655.2,286047000.5,N
1622097675.1,286047000.5,N
1622097676.0,286047000.5,N
1622097695.8,286046998.4,N
1622097715.7,286046998.4,N
1622097735.5,286046998.2,N
1622097755.3,286046998.1,N
1622097775.2,286047000.7,N
1622097795.9,286046998.6,N
1622097815.7,286046998.2,N
1622097835.6,286046998.1,N
1622097855.4,286047001.0,N
1622097875.3,286046999.7,N
1622097895.1,286047000.7,N
1622097896.0,286047000.7,N
1622097915.8,286046998.7,N
1622097935.7,286046998.8,N
1622097955.5,286047001.1,N
1622097975.3,286046998.6,N
1622097995.2,286046999.0,N
1622098015.0,286047000.8,N
1622098045.9,286047000.5,E
1622098055.9,286047000.3,N
1622098075.7,286047001.2,P
1622098095.5,286047000.6,N
1622098115.4,286046998.4,Y
1622098135.2,286046998.3,P
1622098155.1,286047000.4,N
1622098156.0,286047000.4,N
1622098175.8,286047002.3,N
1622098195.6,286047000.5,N
1622098215.5,286047000.4,N
1622098235.3,286047000.1,N
1622098255.1,286047000.2,N
1622098275.9,286047001.5,N
1622098295.7,286047003.9,Y
1622098315.6,286047002.6,P
1622098335.4,286047002.7,N
1622098355.2,286046999.8,N
1622098375.1,286046998.1,N
1622098376.0,286046998.1,N
1622098395.8,286046998.1,N
1622098415.6,286046998.1,N
1622098435.5,286046998.5,N
1622098455.3,286046998.2,N
1622098475.2,286046999.1,N
1622098495.9,286046999.1,N
1622098515.7,286047001.1,N
1622098535.6,286047000.4,N
1622098555.4,286047000.5,N
1622098575.2,286047001.0,N
1622098595.1,286046999.3,N
1622098596.0,286046999.3,N
1622098615.8,286046998.4,N
1622098635.7,286046999.9,N
1622098655.5,286046999.6,N
1622098675.3,286046995.9,Y
1622098695.2,286046995.8,P
1622098715.0,286046995.6,N
1622098715.9,286046995.6,N
1622098735.7,286046996.7,N
1622098755.6,286046995.3,Y
1622098775.4,286046996.8,P
1622098795.3,286046996.6,P
